Location: Central Falls
(41.8900°N, 71.3929°W)
Time: 04:39:18
(UTC+00:00)

Tiros 1 - Pass Details

Date: 08 December 2023
Orbit: 625 x 658 km, 48.4° (Epoch: 01 March)

Event Time Altitude Azimuth Distance (km) Brightness Sun altitude
Rises 12:22:02 0° 296° (WNW) 2,989 9.9 2.6°
Reaches altitude 10° 12:24:26 10° 300° (WNW) 2,075 9.1 2.9°
Maximum altitude 12:29:10 59° 21° (NNE) 760 7.6 3.7°
Drops below altitude 10° 12:33:52 10° 101° (E) 2,060 11.1 4.4°
Sets 12:36:14 0° 105° (ESE) 2,966 12.1 4.7°
